Theta_e
311 312 314 313 313 315 315 315 314 314 313 314 313 314 313 313 314 314 315 314 314 314 314 314 316 326 328 331 332 332 332 328 322 322 325 326 326 326 327 327 328 329 330 331
312 313 314 314 313 314 314 314 314 313 312 313 313 313 313 313 313 314 315 316 315 315 315 314 313 314 319 323 328 331 332 332 328 323 324 325 326 326 328 328 328 329 331 333
313 314 314 313 312 313 314 314 313 314 312 313 313 311 312 312 314 313 314 314 314 314 313 312 312 311 311 313 318 325 328 332 332 330 330 330 328 326 328 327 328 329 328 329
314 312 313 312 312 312 313 312 314 313 311 311 311 308 312 309 309 310 311 312 312 312 312 313 312 311 311 310 311 317 324 329 331 332 332 331 327 326 329 329 329 328 328 329
312 311 312 313 313 312 313 313 314 314 314 313 313 309 312 309 309 310 313 313 313 313 313 313 312 312 311 310 310 310 314 325 329 331 332 332 332 329 328 326 328 330 329 329
310 309 312 313 311 312 312 313 314 314 314 310 313 309 310 309 309 311 313 314 313 313 312 312 312 313 313 312 311 310 310 320 326 328 330 329 330 329 326 326 324 324 324 326
309 310 310 310 311 311 312 311 311 311 311 312 307 310 309 310 312 310 311 313 313 312 312 313 313 314 314 313 311 310 310 315 320 322 325 327 326 326 327 327 326 326 325 326
311 311 309 310 311 311 311 310 312 313 314 310 307 308 310 308 309 312 314 313 313 313 312 312 313 314 315 314 312 311 311 311 313 316 318 320 318 321 320 320 320 317 313 312
311 312 310 310 311 311 311 311 312 308 303 311 308 309 309 307 307 311 313 312 312 312 311 311 311 312 313 315 316 316 316 316 316 317 317 316 315 313 311 311 311 311 311 311
310 311 311 309 310 310 310 309 309 310 307 312 310 311 309 309 307 309 311 312 312 311 310 310 311 311 311 311 311 311 311 311 311 311 311 311 311 311 311 310 309 308 307 306
311 313 311 310 310 310 309 308 310 311 313 314 310 308 307 310 309 309 312 313 311 310 310 310 310 311 311 311 311 311 311 311 311 311 310 310 309 308 308 307 306 305 304 304
311 311 311 311 309 308 308 310 309 311 310 308 312 311 309 308 309 311 313 312 311 310 310 310 310 310 310 310 311 311 310 310 310 309 309 308 307 305 304 304 304 304 304 303
311 312 312 311 311 309 310 309 310 309 310 309 308 308 307 310 310 312 312 311 311 311 310 310 310 310 310 310 310 310 309 309 308 306 305 304 304 304 304 303 303 302 301 300
311 313 313 312 311 310 310 309 308 309 310 309 309 311 309 311 310 312 311 311 311 311 310 310 308 309 309 309 309 308 307 305 304 303 303 303 303 303 302 301 300 300 299 298
310 310 311 311 311 311 310 309 309 309 310 309 309 309 309 309 310 311 311 311 311 310 309 309 308 308 307 307 305 304 304 303 302 303 303 302 302 300 300 299 299 297 296 295
309 309 309 311 310 311 311 310 310 309 309 308 308 309 309 310 312 312 311 311 310 310 309 309 308 308 306 305 304 303 303 302 302 302 301 300 299 299 298 297 296 295 294 294
309 309 308 306 310 309 308 310 310 310 309 309 309 310 309 309 311 312 311 311 310 310 309 309 308 306 305 303 303 302 301 301 300 300 299 299 298 297 296 295 294 293 293 293
311 310 311 309 308 309 309 308 310 311 310 309 309 309 308 310 311 312 312 311 311 310 309 308 307 305 304 302 301 301 301 300 299 298 298 298 297 295 294 293 293 292 292 292
310 310 311 313 312 310 309 308 308 309 310 309 309 309 309 311 311 312 312 311 311 311 309 308 307 305 302 301 300 300 299 298 298 297 297 296 294 293 292 292 292 292 292 292
310 310 311 312 308 308 310 309 309 308 310 308 309 308 307 310 310 309 312 312 310 310 309 307 305 303 301 300 299 298 298 297 297 297 295 294 292 292 291 291 291 291 291 291
309 307 311 309 304 308 306 307 310 308 309 309 310 310 309 309 311 311 311 311 310 309 308 306 304 302 300 299 298 298 297 296 296 295 293 292 291 291 291 291 291 290 290 290
310 309 308 305 306 310 306 307 309 308 309 310 311 310 310 310 309 310 310 310 309 307 305 305 302 299 298 297 297 297 296 295 294 293 291 291 290 290 290 290 290 289 289 289
312 310 310 310 310 304 307 305 306 306 307 308 310 311 309 308 307 308 308 307 306 305 303 301 299 298 297 297 298 298 296 294 292 291 291 290 290 290 290 289 289 289 289 289
303 300 306 310 303 302 303 304 307 308 304 305 307 309 309 308 306 306 305 304 304 303 301 299 298 297 298 299 297 296 293 292 291 290 290 290 290 290 289 289 289 289 290 289
302 301 304 303 297 299 302 304 304 304 304 305 306 307 307 307 303 304 303 303 302 300 298 297 298 298 296 296 294 292 291 290 290 289 289 289 289 289 289 289 289 289 289 289
298 303 307 310 305 305 304 303 303 303 304 305 306 305 304 305 304 302 302 302 300 298 298 297 296 295 294 293 292 290 290 289 289 289 289 289 289 289 289 289 289 289 289 288
Wind_Speed
20 11 16 16 11 7 10 6 8 6 3 4 7 5 8 15 10 8 10 15 16 14 13 13 15 18 21 21 21 21 20 20 20 22 23 22 21 19 19 18 17 15 14 14
10 18 12 10 9 9 5 13 6 6 6 3 6 9 7 8 11 15 14 14 15 18 15 16 17 20 24 25 26 25 25 24 24 21 21 23 22 22 21 20 19 18 17 18
11 10 11 7 5 6 6 10 6 6 4 2 1 5 8 7 13 12 15 12 9 14 10 12 14 16 19 23 26 28 27 26 24 23 20 18 20 20 20 20 19 18 17 17
9 5 9 9 9 8 5 3 9 12 7 4 6 4 5 7 6 7 11 11 9 12 16 15 12 14 18 22 25 27 27 26 25 23 21 19 19 18 15 15 14 13 12 12
5 6 8 9 9 7 3 8 8 4 4 3 3 2 4 8 7 7 13 12 11 10 9 11 12 11 12 14 18 23 26 26 24 22 22 19 15 15 13 12 8 8 7 8
3 2 1 3 5 6 8 10 8 4 3 1 5 6 4 6 8 8 14 14 13 11 10 8 7 7 6 7 11 14 22 25 24 24 21 14 13 13 13 11 10 11 11 10
3 2 2 2 9 4 6 8 3 2 1 5 7 3 7 3 2 10 15 16 14 12 11 11 10 9 8 8 8 12 17 22 24 21 22 15 10 9 9 9 9 10 9 10
6 3 6 4 4 8 8 7 5 6 4 4 3 6 5 3 13 16 21 19 18 17 15 13 13 13 13 13 13 13 13 14 15 16 16 16 11 10 8 6 5 3 1 2
9 2 3 4 3 7 5 5 3 7 2 4 5 5 2 5 4 11 20 20 18 18 17 17 17 17 17 18 18 18 18 19 17 16 15 13 12 11 10 8 6 4 3 3
7 5 2 1 2 3 3 7 3 1 5 3 4 2 5 7 11 10 13 21 21 19 20 20 20 20 20 21 23 22 21 21 20 19 17 16 14 12 10 8 6 5 5 5
1 5 2 3 5 8 3 3 2 5 4 5 3 6 2 10 13 13 17 24 26 23 22 22 23 23 22 22 22 23 21 20 19 18 16 15 13 11 10 7 6 5 6 7
1 6 4 2 1 3 3 4 5 4 3 2 3 5 3 3 14 21 22 25 25 24 24 23 23 23 22 21 21 21 20 19 18 16 14 13 11 9 7 6 4 4 6 10
7 3 4 3 2 2 3 4 3 4 3 5 6 5 4 2 14 22 26 28 27 27 25 24 23 23 22 21 20 19 18 17 16 15 12 11 9 6 4 4 5 8 10 13
10 4 7 8 5 8 7 11 8 7 3 4 6 4 4 7 10 19 25 29 30 29 28 26 24 23 23 22 22 20 20 17 15 13 11 8 5 4 4 6 9 13 16 18
6 7 6 3 4 6 6 9 9 8 15 8 11 8 7 11 12 23 29 31 31 30 30 29 29 27 26 24 23 21 19 17 14 11 8 5 3 4 7 10 13 16 17 19
1 3 6 1 4 4 4 9 16 19 14 8 6 8 7 22 22 27 30 31 30 33 34 33 30 29 27 26 25 22 19 16 13 9 5 3 2 5 9 13 15 17 19 21
7 5 3 3 6 6 4 13 16 12 11 19 16 21 6 7 19 27 30 36 39 41 40 38 34 31 29 27 24 22 19 15 12 8 4 1 5 10 14 16 18 20 22 24
8 6 3 2 3 3 9 11 14 20 14 18 13 5 14 15 33 38 41 44 40 42 43 40 36 33 30 28 25 22 18 15 10 6 1 4 10 14 16 17 19 22 24 26
4 5 4 7 3 8 9 7 10 9 18 11 19 20 12 15 23 23 36 40 44 45 43 41 39 36 32 28 25 21 18 13 8 3 3 9 13 15 16 18 20 22 26 29
4 8 3 4 6 11 23 6 10 8 14 14 22 10 10 20 8 10 37 38 39 41 44 42 40 37 33 29 25 21 16 11 6 3 7 11 14 15 16 18 22 26 29 33
4 1 11 6 3 8 6 7 21 9 9 12 28 27 28 12 28 28 33 36 42 44 45 44 40 37 33 29 24 19 13 9 5 6 9 11 13 14 17 21 25 30 33 36
9 8 4 2 2 15 8 6 16 7 4 3 5 24 32 29 21 21 35 43 46 47 45 42 41 37 32 26 21 16 11 6 6 8 9 9 11 15 20 24 28 32 35 38
5 5 6 10 7 2 15 3 6 2 5 6 10 14 23 28 21 29 39 44 45 44 43 41 39 35 30 24 17 13 10 8 8 8 8 9 12 17 22 27 30 33 36 39
1 1 3 3 2 2 9 6 8 11 7 9 11 13 21 28 29 33 38 41 42 42 43 40 37 32 26 19 16 13 10 8 8 8 8 12 16 20 24 27 30 33 36 38
1 2 3 4 2 4 7 19 10 10 9 8 10 15 20 25 29 33 38 41 43 43 40 36 30 26 22 19 16 12 10 9 9 9 11 15 19 23 26 27 30 32 35 37
6 4 3 3 1 3 3 8 9 7 5 8 14 16 19 25 30 33 38 41 43 41 36 33 29 24 20 16 13 12 10 10 10 11 14 18 22 24 27 29 31 31 35 38
Wind_Direction
197 207 209 199 204 232 163 208 145 105 71 154 211 225 199 181 189 231 196 187 189 199 203 202 209 209 208 212 215 220 231 237 228 222 224 231 235 238 244 252 257 260 264 265
175 220 203 196 199 237 258 184 151 50 112 113 205 237 246 230 197 204 207 206 195 177 189 209 216 212 215 216 216 217 219 231 241 236 235 236 240 245 251 257 261 265 267 269
188 189 200 174 166 174 243 175 145 136 129 263 334 267 215 211 205 195 208 198 173 173 181 213 225 226 221 220 217 219 218 220 233 244 239 244 241 244 250 258 262 266 267 267
200 207 182 157 182 178 164 67 128 125 144 198 169 263 200 157 181 194 207 215 197 209 202 216 224 220 225 225 219 217 217 215 217 228 231 234 241 242 249 260 265 269 272 271
181 159 167 172 184 182 154 116 120 134 145 122 222 103 258 125 186 195 176 169 161 159 180 203 213 226 231 226 225 219 216 208 210 213 228 233 233 236 237 246 258 269 280 280
83 299 155 126 55 113 139 97 82 77 113 312 193 161 248 182 196 149 146 156 164 172 189 188 179 184 202 202 206 204 207 200 201 206 210 221 230 231 233 238 246 258 267 273
121 70 24 147 85 123 146 139 118 130 198 210 336 108 243 189 97 145 147 154 161 157 148 151 157 158 157 151 160 171 184 192 199 199 204 198 213 212 211 220 227 236 249 253
154 188 174 184 171 172 189 169 145 168 171 197 339 219 245 74 90 124 149 156 154 161 157 154 147 141 137 134 134 145 160 172 180 187 193 203 199 199 195 198 201 199 219 342
172 86 50 37 5 138 210 220 101 104 35 79 200 254 26 144 127 137 141 156 159 156 151 143 140 138 134 129 125 127 130 130 132 135 139 136 131 127 122 116 108 93 68 26
161 108 332 307 314 77 178 145 86 29 126 214 239 222 221 207 191 172 166 165 159 158 154 150 144 139 136 132 130 129 128 127 125 125 125 123 121 120 117 110 100 80 53 29
63 108 174 158 215 162 146 175 199 150 148 164 146 252 298 200 182 176 171 169 161 163 160 155 149 144 141 138 136 133 131 129 129 129 126 124 120 115 107 98 79 51 25 2
59 106 137 179 43 7 15 178 169 147 220 83 137 271 318 337 161 164 171 165 168 165 165 162 156 150 149 146 140 137 137 138 133 129 127 125 117 109 98 83 58 18 348 340
184 125 98 23 346 28 215 173 218 111 87 193 143 254 312 76 138 164 163 166 168 169 170 165 162 159 154 150 147 145 142 143 138 136 133 127 121 110 79 34 5 347 340 335
135 145 151 182 193 134 187 194 191 173 139 180 216 187 216 173 161 162 164 167 169 174 174 170 166 165 162 160 157 155 150 148 144 141 135 127 110 77 27 360 350 342 335 330
160 186 181 155 127 144 163 177 170 202 215 185 224 218 192 193 180 173 169 171 176 178 178 174 177 172 171 166 162 159 157 154 150 150 142 129 88 27 360 344 333 327 326 327
257 210 157 105 71 60 142 175 185 208 220 263 259 261 185 195 179 171 176 174 177 183 183 186 185 180 176 172 168 166 164 161 157 153 146 110 35 341 328 325 324 326 328 329
150 119 85 225 122 88 350 209 190 206 212 214 228 235 160 174 182 181 181 185 188 190 188 190 187 182 179 175 174 171 166 164 164 160 151 22 330 328 329 329 331 331 333 333
149 119 58 117 80 145 245 158 190 203 209 215 237 225 189 189 195 197 200 196 192 195 195 193 187 184 181 180 174 172 170 170 168 166 205 321 325 326 328 330 333 333 334 334
160 141 138 200 224 293 289 202 177 171 243 212 223 236 212 215 192 207 203 206 205 204 198 194 190 187 182 179 177 175 172 171 172 190 303 321 324 328 331 333 334 335 332 331
353 201 143 163 164 203 248 184 141 89 265 200 218 220 162 151 186 219 206 207 201 201 201 193 189 184 182 177 178 177 177 178 190 250 309 321 328 330 332 334 333 331 329 327
137 72 199 192 218 274 200 162 143 148 245 203 208 213 181 192 215 229 204 195 197 196 193 193 185 182 180 178 178 180 183 193 227 293 316 324 325 327 327 330 329 327 324 322
161 158 190 102 160 256 144 105 170 214 201 219 236 222 208 209 213 209 192 188 189 188 184 186 180 177 175 177 180 186 196 218 273 295 309 316 318 321 323 324 324 323 323 323
178 192 184 178 212 200 172 142 185 197 253 250 229 227 218 203 183 178 177 179 182 182 181 178 176 174 175 179 188 206 213 244 272 291 295 299 312 318 319 321 322 323 325 324
274 347 170 109 270 179 212 207 215 230 268 262 242 228 215 198 180 177 179 179 177 178 175 173 175 176 179 187 198 214 229 247 261 266 281 300 310 316 320 321 322 324 326 324
198 114 169 288 299 307 247 228 233 227 246 249 219 204 200 197 182 183 179 179 177 172 171 173 177 182 185 193 204 219 236 248 254 269 291 305 314 318 319 322 323 324 323 321
186 176 174 235 140 81 348 229 216 218 226 213 197 181 186 189 183 182 178 175 173 172 174 176 180 185 190 200 215 229 240 244 257 283 301 310 315 315 319 322 323 322 323 324